[[{"header":{"parameterUnit":"m.s-1","parameterCategory":1,"la1":30.2991,"la2":30.254,"lo1":-89.0895,"lo2":-89.0444,"dy":0.0017,"dx":0.0017,"nx":28,"ny":28,"refTime":"2025-03-11T03:00:00:Z","depth":0,"parameterNumber":2,"parameterNumberName":"U-component_of_WINDS"},"data":[0,0,0,0,0,0,0,0,0,0,0,0,0,0,0,0,0,0,0,0,0,0,0,0,0,0,0,0,0,0,0,0,0,0,0,0,0,0,0,0,0,0,0,0,0,0,0,0,0,0,0,0,0,0,0,0,0,0,5.2707,5.2708,0,5.2842,5.2844,5.2845,5.2737,5.2732,5.2728,5.2723,5.2873,5.2881,5.2889,0,0,0,0,0,0,0,0,0,0,0,0,0,5.2363,5.237,5.2707,5.2708,5.271,5.2842,5.2844,5.2846,5.2738,5.2732,5.2726,5.2721,5.287,5.288,5.289,0,0,0,0,0,0,0,0,0,0,0,0,0,5.2507,5.2372,5.2706,5.2672,5.267,5.2842,5.2844,5.2846,5.2739,5.2732,5.2725,5.2719,5.2867,5.2879,5.2891,5.3107,0,0,5.2929,5.2934,0,0,0,0,0,0,0,0,5.2499,5.252,5.2675,5.2674,5.2673,5.2765,5.2777,5.2934,5.2741,5.2713,5.2723,5.2715,5.2843,5.2857,5.2898,5.3114,5.312,5.293,5.2938,5.2943,5.2947,0,0,0,0,0,0,0,5.2489,5.2513,5.276,5.2678,5.2676,5.2652,5.2665,5.2806,5.2816,5.2715,5.2707,5.2724,5.2841,5.2886,5.2901,5.3123,5.293,5.2941,5.2949,5.2953,5.3521,5.3528,0,0,0,0,0,0,5.2481,5.2506,5.2756,5.2764,5.2566,5.2664,5.2678,5.2743,5.2814,5.2818,5.273,5.2719,5.2869,5.2887,5.2906,5.3161,5.2943,5.2955,5.2962,5.3513,5.3522,5.3531,0,0,0,0,0,0,5.2474,5.2504,5.2751,5.2633,5.2662,5.2677,5.2751,5.2749,5.2794,5.2825,5.2827,5.2774,5.2864,5.2888,5.3057,5.3165,5.296,5.2972,5.3504,5.3516,5.3526,5.3675,0,0,0,0,0,0,5.2465,5.2503,5.2583,5.2635,5.2669,5.2897,5.2757,5.2757,5.2814,5.2801,5.2867,5.2871,5.286,5.3039,5.3069,5.3178,5.2981,5.3494,5.3509,5.3523,5.366,5.369,5.3715,0,0,0,0,0,5.2453,5.2622,5.2587,5.2618,5.2769,5.2903,5.2923,5.2904,5.2824,5.2905,5.2925,5.2869,5.3148,5.3057,5.309,5.3205,5.3488,5.3505,5.3522,5.3648,5.3684,5.3715,0,0,0,0,0,0,5.2586,5.2628,5.259,5.2781,5.2839,5.2885,5.2987,5.2943,5.3028,5.3012,5.2988,5.3004,5.318,5.321,5.3107,5.3417,5.3306,5.333,5.339,5.3425,5.3452,5.344,5.2992,0,0,0,0,0,5.2636,5.2739,5.2772,5.2937,5.2968,5.2973,5.3031,5.3011,5.3071,5.3096,5.3128,5.3192,5.3293,5.3361,5.3457,5.3665,5.3677,5.376,5.3788,5.381,5.3831,5.3941,5.3978,5.3587,5.3587,5.3586,0,0,5.2744,5.278,5.2847,5.2965,5.3007,5.3115,5.2994,5.3115,5.3196,5.3116,5.3274,5.3301,5.337,5.3558,5.3643,5.3589,5.3942,5.3832,5.3849,5.3858,5.3963,5.4,5.4033,5.3598,5.3596,5.3594,0,0,5.2994,5.3032,5.3172,5.3216,5.328,5.3282,5.3316,5.3369,5.3382,5.354,5.3481,5.3579,5.3756,5.3806,5.3855,5.4124,5.4075,5.4156,5.4299,5.4407,5.4438,5.4465,5.4558,5.4593,5.4178,5.4178,5.4178,0,5.312,5.3277,5.3251,5.3374,5.3428,5.3357,5.3499,5.3545,5.3639,5.3679,5.3616,5.3833,5.3876,5.4074,5.4138,5.4182,5.422,5.4147,5.4435,5.4462,5.4487,5.4576,5.4611,5.4187,5.4186,5.4185,5.4184,0,5.3428,5.3539,5.3645,5.3733,5.3799,5.3932,5.3927,5.3998,5.3973,5.3982,5.4145,5.4193,5.4295,5.4341,5.432,5.4537,5.45,5.4437,5.4325,5.4534,5.4617,5.4651,5.42,5.4197,5.4194,5.4192,0,0,5.3765,5.3834,5.3874,5.3911,5.3977,5.4063,5.4194,5.4291,5.4351,5.4419,5.4528,5.4678,5.4618,5.4674,5.4658,5.4753,5.496,5.4678,5.4679,5.4726,5.52,5.5245,5.5285,5.4928,5.4935,5.494,5.5193,0,5.4016,5.4237,5.4217,5.4429,5.4531,5.4464,5.4578,5.4632,5.4645,5.4735,5.475,5.4856,5.4771,5.4803,5.4895,5.4915,5.5054,5.4897,5.503,5.5035,5.5012,5.5329,5.5378,5.5614,5.5226,5.5231,5.5235,0,5.4337,5.4411,5.4632,5.468,5.4722,5.4824,5.4909,5.4997,5.5057,5.5059,5.5121,5.5088,5.5221,5.5107,5.529,5.5184,5.5238,5.5256,5.5265,5.5275,5.5146,5.5345,5.5689,5.5724,5.5287,5.5283,5.5279,0,5.4557,5.4713,5.4864,5.49,5.496,5.5033,5.5062,5.5115,5.5174,5.5251,5.5289,5.5382,5.5433,5.5507,5.55,5.5418,5.5687,5.5572,5.5693,5.5693,5.5751,5.5747,5.6106,5.579,5.5789,5.5789,5.5788,0,5.4838,5.4975,5.4963,5.5056,5.5208,5.5185,5.5337,5.5359,5.5406,5.5504,5.5455,5.5548,5.5535,5.5629,5.5626,5.5777,5.5802,5.5808,5.5805,5.5811,5.581,5.5844,5.5827,5.5798,5.5796,5.5794,5.5793,0,5.5108,5.5106,5.5266,5.5309,5.5323,5.5433,5.5471,5.556,5.5568,5.5692,5.572,5.5734,5.5843,5.5844,5.597,5.5967,5.6151,5.6131,5.6129,5.6124,5.6244,5.6231,5.6635,5.6686,5.634,5.6343,5.6346,0,5.5286,5.5389,5.5442,5.5501,5.5534,5.5632,5.569,5.5673,5.5736,5.5811,5.5892,5.5995,5.6075,5.6252,5.6275,5.6371,5.6351,5.6486,5.6365,5.6367,5.635,5.6343,5.6352,5.6509,5.6513,5.6516,5.6519,0,5.56,5.5593,5.5678,5.5762,5.5832,5.5899,5.5961,5.6014,5.6003,5.6077,5.6185,5.6247,5.6373,5.6476,5.6568,5.6601,5.6559,5.6557,5.6589,5.6595,5.6588,5.659,5.6191,5.6547,5.6544,5.6542,5.6541,5.6539,5.5828,5.5915,5.5965,5.6061,5.6104,5.6162,5.6247,5.6264,5.6353,5.645,5.6436,5.6556,5.6614,5.6732,5.6773,5.6868,5.6821,5.6869,5.6881,5.6892,5.6904,5.6575,5.6886,5.6885,5.6884,5.6883,5.6883,0,5.6137,5.6165,5.6254,5.6338,5.6414,5.6365,5.643,5.6497,5.6602,5.6658,5.6737,5.6861,5.6961,5.6991,5.7087,5.7158,5.7141,5.7183,5.7177,5.7185,5.6941,5.6902,5.7195,5.7195,5.7195,5.7195,5.7195,5.7195,5.6307,5.6451,5.6451,5.6617,5.6645,5.6759,5.68,5.6854,5.6898,5.7037,5.7117,5.7135,5.7181,5.728,5.7369,5.7376,5.7413,5.7463,5.7462,5.7234,5.7202,5.7172,5.7135,5.7472,5.7472,5.7696,5.7699,5.77]},{"header":{"parameterUnit":"m.s-1","parameterCategory":1,"la1":30.2991,"la2":30.254,"lo1":-89.0895,"lo2":-89.0444,"dy":0.0017,"dx":0.0017,"nx":28,"ny":28,"refTime":"2025-03-11T03:00:00:Z","depth":0,"parameterNumber":3,"parameterNumberName":"V-component_of_WINDS"},"data":[0,0,0,0,0,0,0,0,0,0,0,0,0,0,0,0,0,0,0,0,0,0,0,0,0,0,0,0,0,0,0,0,0,0,0,0,0,0,0,0,0,0,0,0,0,0,0,0,0,0,0,0,0,0,0,0,0,0,2.3627,2.3628,0,2.3686,2.3687,2.3688,2.3648,2.3646,2.3645,2.3643,2.3704,2.3707,2.371,0,0,0,0,0,0,0,0,0,0,0,0,0,2.3481,2.3484,2.3627,2.3628,2.3628,2.3686,2.3687,2.3688,2.3649,2.3646,2.3644,2.3642,2.3703,2.3707,2.3711,0,0,0,0,0,0,0,0,0,0,0,0,0,2.3543,2.3485,2.3627,2.3616,2.3615,2.3686,2.3687,2.3688,2.3649,2.3646,2.3644,2.3641,2.3701,2.3706,2.3711,2.3796,0,0,2.3726,2.3728,0,0,0,0,0,0,0,0,2.3539,2.3548,2.3617,2.3617,2.3616,2.3657,2.3658,2.3724,2.365,2.3636,2.3643,2.364,2.3691,2.3696,2.3713,2.3799,2.3801,2.3727,2.373,2.3732,2.3733,0,0,0,0,0,0,0,2.3535,2.3545,2.365,2.3618,2.3618,2.3608,2.3614,2.367,2.3678,2.3637,2.3635,2.3642,2.369,2.3709,2.3714,2.3802,2.3727,2.3731,2.3734,2.3736,2.396,2.3963,0,0,0,0,0,0,2.3532,2.3542,2.3649,2.3652,2.357,2.3613,2.362,2.3647,2.3677,2.3679,2.3644,2.364,2.3701,2.3709,2.3716,2.3817,2.3732,2.3736,2.3739,2.3957,2.3961,2.3964,0,0,0,0,0,0,2.3529,2.3542,2.3646,2.3596,2.3609,2.3619,2.3649,2.3649,2.3668,2.3682,2.3684,2.3662,2.37,2.3709,2.3776,2.3819,2.3739,2.3743,2.3954,2.3958,2.3962,2.402,0,0,0,0,0,0,2.3525,2.3541,2.3573,2.3597,2.3612,2.3705,2.3652,2.3652,2.3677,2.3671,2.3699,2.3701,2.3698,2.3769,2.3781,2.3824,2.3747,2.395,2.3956,2.3961,2.4014,2.4026,2.4036,0,0,0,0,0,2.352,2.3587,2.3574,2.3588,2.3652,2.3708,2.3716,2.3711,2.368,2.3713,2.3722,2.37,2.3812,2.3776,2.379,2.3835,2.3947,2.3954,2.3961,2.401,2.4024,2.4036,0,0,0,0,0,0,2.3567,2.359,2.3576,2.3653,2.3679,2.3701,2.3742,2.3726,2.3761,2.3755,2.3747,2.3754,2.3824,2.3836,2.3795,2.3918,2.3875,2.3885,2.3908,2.3921,2.3932,2.3927,2.3751,0,0,0,0,0,2.3586,2.3629,2.3647,2.3713,2.3727,2.3732,2.3756,2.375,2.3776,2.3787,2.3801,2.3827,2.3868,2.3895,2.3934,2.4016,2.4022,2.4054,2.4065,2.4073,2.4082,2.4126,2.414,2.3986,2.3986,2.3986,0,0,2.3626,2.3644,2.3672,2.3723,2.3742,2.3787,2.3741,2.3791,2.3824,2.3794,2.3858,2.387,2.3899,2.3974,2.4007,2.3986,2.4126,2.4082,2.4089,2.4092,2.4134,2.4149,2.4162,2.3991,2.399,2.3989,0,0,2.3723,2.3741,2.3798,2.3818,2.3847,2.3851,2.3864,2.3889,2.3896,2.396,2.3938,2.3978,2.4049,2.407,2.4091,2.4196,2.4177,2.4209,2.4265,2.4308,2.432,2.4331,2.4368,2.4382,2.4217,2.4217,2.4217,0,2.3769,2.3836,2.3829,2.388,2.3904,2.3879,2.3937,2.3957,2.3998,2.4014,2.399,2.4078,2.4096,2.4176,2.4201,2.4219,2.4234,2.4205,2.4319,2.433,2.434,2.4375,2.4389,2.4221,2.4221,2.422,2.422,0,2.3891,2.3938,2.3981,2.402,2.4049,2.4103,2.4105,2.4134,2.4126,2.4132,2.4198,2.4219,2.4261,2.428,2.4272,2.4358,2.4344,2.432,2.4276,2.4358,2.4391,2.4405,2.4226,2.4225,2.4224,2.4223,0,0,2.4018,2.4054,2.407,2.4088,2.4119,2.4155,2.4208,2.425,2.4275,2.4304,2.4349,2.441,2.4387,2.441,2.4405,2.4443,2.4525,2.4414,2.4415,2.4434,2.4622,2.4639,2.4655,2.4514,2.4516,2.4518,2.4619,0,2.4116,2.4208,2.4205,2.4292,2.4335,2.4313,2.4359,2.4384,2.4391,2.4429,2.4437,2.448,2.4447,2.4461,2.4498,2.4508,2.4563,2.45,2.4555,2.4557,2.4548,2.4673,2.4692,2.4786,2.4632,2.4634,2.4636,0,2.4242,2.4275,2.4366,2.4391,2.4409,2.4451,2.4489,2.4526,2.4553,2.4556,2.4582,2.4571,2.4625,2.458,2.4655,2.4613,2.4635,2.4643,2.4647,2.4651,2.4601,2.468,2.4816,2.483,2.4656,2.4655,2.4653,0,2.4324,2.4392,2.4456,2.4472,2.4503,2.4533,2.4547,2.4572,2.4597,2.4631,2.4647,2.4686,2.4708,2.4738,2.4738,2.4706,2.4814,2.4769,2.4817,2.4818,2.4841,2.4839,2.4981,2.4856,2.4856,2.4856,2.4855,0,2.4433,2.449,2.4493,2.4532,2.4595,2.4591,2.4653,2.4665,2.4687,2.4728,2.4712,2.475,2.4748,2.4787,2.4788,2.4849,2.4859,2.4863,2.4862,2.4864,2.4864,2.4878,2.4871,2.4859,2.4859,2.4858,2.4857,0,2.4536,2.454,2.4608,2.4632,2.464,2.4685,2.4705,2.4743,2.4749,2.4801,2.4813,2.4823,2.4868,2.4871,2.4924,2.4924,2.4999,2.4992,2.499,2.4988,2.5036,2.5032,2.5192,2.5213,2.5075,2.5076,2.5077,0,2.4605,2.4648,2.4677,2.4703,2.4719,2.4762,2.4787,2.4785,2.4813,2.4848,2.4881,2.4925,2.496,2.5034,2.5045,2.5086,2.5078,2.5132,2.5084,2.5085,2.5079,2.5076,2.508,2.5141,2.5143,2.5144,2.5145,0,2.4726,2.4727,2.4764,2.4804,2.4835,2.4866,2.4894,2.4917,2.4918,2.495,2.4997,2.5024,2.5078,2.5122,2.5161,2.5176,2.5161,2.516,2.5173,2.5175,2.5172,2.5174,2.5015,2.5156,2.5155,2.5154,2.5154,2.5153,2.4813,2.4851,2.4877,2.492,2.4942,2.4969,2.5005,2.5016,2.5055,2.5099,2.5095,2.5147,2.5174,2.5225,2.5243,2.5283,2.5265,2.5284,2.5289,2.5294,2.5299,2.5167,2.5291,2.529,2.529,2.529,2.529,0,2.4934,2.495,2.4989,2.503,2.5064,2.5048,2.5079,2.5108,2.5154,2.518,2.5215,2.5269,2.5312,2.5327,2.5369,2.5398,2.5392,2.5409,2.5407,2.541,2.5313,2.5297,2.5413,2.5413,2.5413,2.5413,2.5413,2.5413,2.5,2.5062,2.5066,2.5139,2.5155,2.5205,2.5225,2.525,2.5271,2.5332,2.5367,2.5377,2.54,2.5443,2.5481,2.5485,2.5501,2.5521,2.5521,2.543,2.5417,2.5405,2.539,2.5524,2.5524,2.5615,2.5616,2.5616]}]]